Location: Unspecified
(0.0000°N, 0.0000°E)
Time: 21:07:17
(UTC+00:00)

SL-14 DEB - Visible Passes

Search period start: 12 January 2025 00:00
Search period end: 22 January 2025 00:00
Orbit: 944 x 1080 km, 82.5° (Epoch: 12 January)

Date Brightness Start Highest point End Pass type
(mag) Time Alt. Az. Time Alt. Az. Time Alt. Az.
12 Jan ? 20:17:10 10° S 20:20:11 29° SSE 20:20:11 29° SSE visible
13 Jan ? 20:53:25 10° SSW 20:56:55 34° SW 20:56:55 34° SW visible
14 Jan ? 19:44:18 10° SSE 19:48:13 29° ESE 19:48:13 29° ESE visible
14 Jan ? 21:31:38 10° SW 21:33:42 16° WSW 21:33:42 16° WSW visible
15 Jan ? 20:19:46 10° S 20:25:03 68° SSW 20:25:03 68° SSW visible
16 Jan ? 19:11:53 10° SE 19:16:10 20° E 19:16:25 20° E visible
16 Jan ? 20:56:54 10° SW 21:01:55 29° W 21:01:55 29° W visible
17 Jan ? 19:46:21 10° S 19:52:21 59° E 19:53:21 52° NE visible
18 Jan ? 18:40:44 10° ESE 18:42:35 11° E 18:44:25 10° ENE visible
18 Jan ? 20:22:40 10° SSW 20:28:29 48° W 20:30:22 36° NW visible
19 Jan ? 19:13:13 10° SSE 19:18:43 36° E 19:21:57 21° NE visible
19 Jan ? 21:01:04 10° WSW 21:04:36 16° W 21:07:27 12° NW visible
20 Jan ? 19:48:44 10° S 19:54:49 78° W 19:59:08 20° N visible
21 Jan ? 18:40:28 10° SE 18:45:01 22° E 18:49:33 10° NE visible
21 Jan ? 20:25:55 10° SW 20:30:53 27° W 20:35:53 10° NNW visible
